Presure
93 95 128 101 170 110 111 108 100 90 91 94 161 145 150 116 104 100 149 103 104 100 95 116 96 103 153 109 131 149 141 157 158
108 96 127 95 94 150 157 163 130 161 162 120 147 103 129 103 110 118 109 107 100 121 115 127 131 115 86 113 149 141 160 152 155
93 103 96 96 121 139 108 102 106 146 127 147 143 128 103 101 155 120 97 94 109 141 136 159 105 139 111 150 146 148 212 160 166
158 149 126 144 96 95 91 92 97 106 128 135 112 126 123 118 150 133 125 156 124 141 130 148 113 146 142 138 123 167 212 200 151
133 120 158 130 139 131 128 101 100 123 138 137 137 144 139 147 155 148 146 104 103 123 96 100 111 144 139 196 215 151 158 168 176
133 135 134 134 157 127 139 132 125 126 129 130 121 92 114 108 104 128 133 182 152 115 144 147 150 146 127 206 144 151 249 144 170
174 126 140 136 136 141 157 149 135 127 122 123 123 150 145 146 138 125 130 148 149 142 145 129 141 149 147 208 181 190 192 180 145
144 160 151 145 138 139 136 147 153 144 159 125 126 151 145 119 141 140 155 187 139 137 146 143 122 144 145 207 207 145 148 196 144
171 154 146 157 162 141 142 142 141 145 139 151 151 148 148 142 141 140 142 138 139 137 140 141 138 136 202 199 211 204 198 186 188
183 189 159 157 149 152 158 147 146 139 141 140 140 133 141 141 136 135 134 159 139 137 141 138 185 200 192 198 198 185 161 185 82
132 135 176 180 175 174 173 160 164 135 143 144 132 149 144 136 133 153 137 175 138 173 137 232 206 183 194 194 202 113 190 83 181
123 146 127 140 165 168 175 179 147 158 168 142 145 149 140 135 131 135 134 183 135 206 143 232 176 208 198 140 173 190 185 181 182
133 150 199 127 180 179 171 171 180 180 170 175 172 144 135 128 134 133 165 169 195 216 194 213 209 168 203 130 187 187 202 178 177
151 172 204 135 182 172 165 174 176 181 155 179 178 159 171 132 172 124 167 175 166 187 194 227 171 207 128 201 171 201 200 169 140
158 217 134 182 123 138 168 188 180 177 174 142 140 132 187 188 180 124 163 186 184 194 190 221 206 206 219 229 231 208 181 167 176
184 166 116 165 195 172 157 170 183 182 172 193 167 157 170 175 172 127 127 131 161 184 192 139 206 202 186 173 90 170 172 199 160
221 218 176 213 186 189 118 125 184 189 186 194 177 144 174 126 176 151 177 178 125 173 210 174 170 174 102 90 150 164 163 146 170
203 173 177 164 184 189 142 190 125 170 194 168 178 181 180 183 161 184 152 174 175 164 165 201 160 90 91 90 148 159 160 153 168
176 190 174 194 185 175 191 176 191 183 196 167 177 169 183 149 157 151 188 194 133 183 172 199 139 85 83 140 163 171 165 151 173
201 198 199 204 190 191 160 125 173 161 176 176 178 179 165 151 181 170 181 192 183 181 187 178 139 168 156 94 183 165 160 170 150
Wind_Speed
20 20 22 19 25 24 23 23 19 12 13 15 21 22 22 25 21 22 27 23 24 21 18 31 22 27 39 28 35 42 42 38 39
24 22 25 20 19 27 25 25 28 23 23 25 21 23 25 23 26 28 27 27 22 24 34 36 32 34 17 31 45 38 41 40 40
25 26 24 23 26 26 22 23 25 23 24 22 23 25 24 24 30 28 20 18 27 35 38 37 28 38 31 46 47 47 49 42 41
38 35 33 32 26 24 22 23 24 26 28 29 28 29 29 32 31 35 35 32 34 36 38 37 38 42 47 49 38 48 43 47 41
37 37 38 36 35 34 34 29 28 28 29 30 29 28 31 31 31 33 34 28 29 40 22 24 36 44 48 47 35 50 51 47 46
40 38 38 37 39 37 37 36 35 34 34 34 33 23 35 35 31 36 39 47 37 31 39 41 44 45 47 36 50 52 10 45 48
54 37 41 41 40 39 43 42 36 36 38 38 37 34 36 40 37 40 40 36 37 40 42 44 45 48 49 30 46 35 44 43 49
44 52 49 45 43 43 43 41 40 39 41 40 40 37 35 42 38 41 46 48 39 42 43 44 35 48 50 28 30 51 52 38 51
60 53 48 53 55 47 45 43 41 38 39 40 38 35 35 37 39 43 43 38 40 42 43 45 46 47 29 29 26 26 34 40 44
63 63 56 57 52 54 59 46 42 42 41 39 39 39 37 38 42 46 46 44 41 44 46 47 39 29 33 29 29 37 44 40 34
35 43 61 60 59 60 59 59 62 45 44 42 41 39 38 40 45 45 48 47 42 46 48 24 29 34 31 30 28 39 32 32 45
39 48 39 43 62 62 62 61 47 53 56 42 45 42 37 41 48 48 50 46 44 39 47 23 41 27 29 50 34 34 33 31 41
46 57 68 41 62 64 64 62 64 58 56 55 54 47 41 45 48 51 49 49 45 37 38 30 28 46 26 47 31 29 30 38 41
60 59 67 48 63 60 58 65 64 60 49 54 46 55 59 46 46 52 46 46 53 40 38 25 45 25 43 31 30 24 23 38 43
68 68 51 60 46 48 59 67 63 59 56 44 46 42 54 52 46 55 44 39 41 40 38 28 27 25 27 28 29 21 31 40 38
62 69 50 68 64 59 61 59 66 64 56 52 54 50 55 53 47 59 56 52 35 44 36 43 28 25 27 39 35 38 40 27 49
61 61 56 63 61 64 47 44 64 65 58 51 59 48 59 53 50 52 41 41 36 47 35 38 42 40 28 34 46 39 43 44 48
57 65 64 67 64 62 61 66 47 57 57 49 60 58 58 56 49 49 36 41 36 49 47 37 49 31 33 36 49 49 51 49 49
66 62 65 57 60 68 70 60 65 56 58 54 58 56 57 51 44 50 47 44 33 39 47 34 38 29 32 50 49 47 49 53 50
64 64 57 62 62 66 67 57 58 57 58 59 60 59 52 51 55 46 49 48 42 40 41 42 41 46 51 43 44 52 55 50 42
Wind_Direction
243 250 243 250 241 244 243 244 253 270 272 268 263 261 271 266 267 274 282 281 285 292 299 291 298 293 294 299 303 299 306 306 306
241 246 239 254 259 243 246 247 240 253 259 253 259 263 265 269 269 273 277 283 290 297 291 296 298 302 317 298 299 303 305 309 306
258 248 249 252 247 245 257 258 256 249 253 252 254 262 266 268 280 274 283 288 288 292 291 305 296 302 304 301 302 307 319 310 315
244 248 240 244 254 253 256 260 264 259 254 253 264 265 266 270 285 273 277 291 288 288 291 299 300 305 301 302 304 311 323 320 315
236 230 248 242 248 248 245 254 259 254 251 255 262 264 267 274 286 280 283 285 286 288 288 293 301 298 301 312 317 312 315 319 322
241 241 240 244 251 244 252 249 249 252 257 259 260 264 269 272 272 275 280 303 297 289 297 300 307 303 301 315 308 312 344 318 320
239 253 241 243 244 253 258 254 250 252 258 261 262 271 272 279 277 278 282 292 295 294 300 293 301 308 306 309 310 315 317 319 316
248 245 246 245 245 247 247 258 262 258 266 260 265 272 272 271 279 280 293 305 289 291 301 299 303 305 304 309 316 310 314 323 319
236 249 250 248 252 249 251 251 252 259 259 268 267 269 271 272 277 280 284 285 288 289 293 297 296 297 310 309 313 311 315 320 321
235 237 248 249 252 252 257 253 251 254 258 258 261 264 267 272 275 278 281 293 287 288 294 293 306 302 307 311 309 309 315 321 307
255 243 237 240 243 248 250 256 260 256 259 259 257 268 267 267 274 285 282 299 288 302 290 291 299 298 305 305 302 308 317 310 313
246 245 252 250 243 247 250 251 257 259 261 259 264 266 263 267 272 277 279 300 283 309 291 292 309 293 299 306 303 306 316 315 313
254 251 238 253 240 245 249 253 255 257 260 263 268 267 258 266 270 274 292 294 306 313 306 298 292 305 294 306 302 307 315 310 313
251 243 236 255 241 245 253 252 257 260 263 262 267 268 274 264 284 278 290 295 295 300 303 295 301 293 303 291 296 304 306 310 318
247 234 245 238 250 251 249 249 254 260 261 256 259 259 277 281 284 276 286 294 299 302 300 298 299 299 299 289 284 295 302 311 314
240 242 249 245 238 243 254 253 254 258 263 260 262 264 274 278 280 273 281 285 290 296 295 300 296 300 296 304 313 311 310 305 318
233 231 241 235 238 241 247 248 254 256 257 259 260 268 274 263 280 278 287 289 286 288 294 290 296 298 310 308 305 304 309 313 313
224 241 241 244 243 242 256 248 249 255 255 258 260 263 270 277 277 282 282 284 279 284 287 288 291 295 306 312 306 306 308 312 311
245 239 249 241 241 243 243 247 249 255 252 255 259 268 268 267 273 277 284 285 272 278 278 285 282 303 314 304 299 298 303 308 306
236 237 236 241 242 243 246 247 250 255 255 258 260 263 272 266 276 278 282 284 280 274 277 274 282 284 290 305 285 298 302 299 316